Hourly Weather Observations

Printer Friendly

AL    FL    LA    MS

Data Buoys:

Western Gulf of Mexico
Eastern Gulf of Mexico

Alabama

100 AM CDT MON JUL 06 2020

ALZ051>064-060700-
SOUTHWEST ALABAMA
  
CITY           SKY/WX    TMP DP  RH WIND       PRES   REMARKS
MOBILE         PTCLDY    75  73  93 E3        29.90S                  
6HR MIN TEMP:  73; 6HR MAX TEMP:  81;                                

BROOKLEY FIELD PTCLDY    82  77  84 E9        29.90S HX  90           
6HR MIN TEMP:  79; 6HR MAX TEMP:  85; 6HR PCP: TRACE;                

EVERGREEN      CLOUDY    74  71  91 CALM      29.91S                  
6HR MIN TEMP:  74; 6HR MAX TEMP:  79; 6HR PCP: TRACE;                


Mississippi

100 AM CDT MON JUL 06 2020

MSZ080>082-060700-
COASTAL MISSISSIPPI
  
CITY           SKY/WX    TMP DP  RH WIND       PRES   REMARKS
BILOXI         PTCLDY    77  74  91 CALM      29.88S                  
6HR MIN TEMP:  77; 6HR MAX TEMP:  81;                                

PASCAGOULA     PTCLDY    74  72  93 CALM      29.88F                  
6HR MIN TEMP:  74; 6HR MAX TEMP:  84;                                

GULFPORT       PTCLDY    75  72  90 CALM      29.87F                  
6HR MIN TEMP:  75; 6HR MAX TEMP:  82;                                


Florida

200 AM EDT MON JUL 06 2020

FLZ001>010-012>015-112-114-115-060700-
PANHANDLE FLORIDA
  
CITY           SKY/WX    TMP DP  RH WIND       PRES   REMARKS
PENSACOLA      PTCLDY    79  74  84 SE3       29.88F                  
PENSACOLA NAS  PTCLDY    78  73  84 S5        29.88F                  
MILTON NAS     PTCLDY    72  71  97 CALM      29.90S                  
CRESTVIEW      PTCLDY    74  71  91 CALM      29.91S                  
DUKE FIELD     FAIR      74  71  91 CALM      29.90S                  
VALPARAISO     PTCLDY    76  74  93 CALM      29.89F                  
MARY ESTHER    CLEAR     75  72  91 CALM      29.88S                  
TRI COUNTY     FAIR      75  73  93 CALM      29.90F                  
PANAMA CITY    FAIR      76  72  87 NE5       29.88F                  
TYNDALL AFB    MOCLDY    77  73  88 SE7       29.87F                  
APALACHICOLA   LGT RAIN  80  75  84 SW18G24   29.89F                  

STATION/POSITION SKY/WX   TEMP    WIND        PRES    WAVE   SWELL
                          AIR SEA DIR/SP/G            HT/PER HT/PER
                          (F)     (DEG/KT/KT) (MB)    (FT/S) (FT/S)
30.1N   87.6W              82     190/  6/ 16 1012.1
29.2N   88.2W              82     250/ 10/ 14 1012.5F   2/ 5
28.8N   86.0W                 84  290/  8/ 10 1012.8F   3/ 7   3/ 7
PANAMA CITY BEAC           79 83   60/  3/  5 1012.5
TOWER C                    77     200/ 17/ 19 1012.5F
28.5N   84.5W                     240/ 16/ 19 1014.4F   4/ 5


Louisiana

100 AM CDT MON JUL 06 2020

LAZ040-048-061>063-065-066-069-060700-
SOUTHEAST LOUISIANA
  
CITY           SKY/WX    TMP DP  RH WIND       PRES   REMARKS
N.O. INTL ARPT MOCLDY    77  73  87 W3        29.89F                  
6HR MIN TEMP:  77; 6HR MAX TEMP:  81;                                

N.O. LAKEFRONT PTCLDY    80  72  76 W8        29.90R                  
6HR MIN TEMP:  80; 6HR MAX TEMP:  82;                                

N.O. DOWNTOWN* FAIR      77  72  84 VRB3      29.90S                  
6HR MIN TEMP:  77; 6HR MAX TEMP:  83;                                

SLIDELL        PTCLDY    73  72  96 CALM      29.88S                  
6HR MIN TEMP:  73; 6HR MAX TEMP:  77;                                

BATON ROUGE    PTCLDY    74  73  97 SW5       29.90R                  
6HR MIN TEMP:  74; 6HR MAX TEMP:  77;                                

BOOTHVILLE*    FAIR      77  74  92 SW3       29.90F                  
6HR MIN TEMP:  75; 6HR MAX TEMP:  81;                                

BELLE CHASSE*  PTCLDY    74  74 100 CALM      29.89S                  
6HR MIN TEMP:  73; 6HR MAX TEMP:  80;                                

BOGALUSA*      CLOUDY    77  73  87 SW3       29.90R                  
6HR MIN TEMP:  77; 6HR MAX TEMP:  82;                                

GALLIANO*      PTCLDY    72  72 100 CALM      29.89F                  
NEW ROADS*     FAIR      73  73 100 CALM      29.91S                  
HAMMOND*       CLOUDY    73  72  94 W3        29.90F                  
HOUMA*         PTCLDY    74  74  99 CALM      29.90S                  
6HR MIN TEMP:  74; 6HR MAX TEMP:  82;                                

PORT FOURCHON* CLEAR     81  75  83 SW5       29.90F